Вернуться в каталог

DELTA 1 DEB

АктивенSSO
NORAD 12290·DEBRIS·🇺🇸 United States

Запущен Mar 5, 1978 с Vandenberg Space Force Base

Loading…

Ближайшие Пролёты (ближайшие 24 часа)

TLE

СвежийSource: Space-Track

Эпоха: Sep 14, 2026, 10:58 UTC

1 12290U 78026EJ  26257.45737510  .00000226  00000-0  13968-3 0  9991
2 12290  99.1346 262.4220 0081417  53.0833 307.7763 14.13591021326404

Отслеживайте DELTA 1 DEB в реальном времени с AllMySat

Download on the App Store